Terminal Aerodrome Forecast
Issued by NWS

Home | Current Version | Previous Version | Graphics & Text | Print | Product List | Glossary On
Versions: 1 2 3 4 5 6 7 8 9 10 11 12 13 14 15 16 17 18 19 20
000
FTUS43 KTOP 011100
TAFFOE
TAF
KFOE 011123Z 0112/0212 35012KT 3SM -RASN BR OVC004
     FM011400 32025G34KT 5SM -SN BR OVC006
     FM012100 32023G32KT P6SM OVC015
     FM020100 33017G22KT P6SM OVC025
     FM020600 32015KT P6SM SCT025=

USA.gov is the U.S. government's official web portal to all federal, state and local government web resources and services.